When you browse on this site, cookies collect data to enhance your experience and personalize the content and advertising you see.
Visit our Privacy Policy to learn more. By continuing to use the site, you agree to this use of cookies and data.
  • In Romania
  • List of Countries
  • For 7 days
  • Water Temperature
  • Satellite Maps
  • Weather Map
  • Weather Widgets
  • user-avatar
    Login

    Hourly Weather Tucupita

    Today, 21 March, Thursday

    Time Temperature Precipitation Wind Pressure Humidity
    00:00 +25°C° 0 mm 1 mps 759 mmHg 87%
    01:00 +24°C° 0 mm 1 mps 759 mmHg 91%
    02:00 +24°C° 0 mm 1 mps 758 mmHg 94%
    03:00 +23°C° 0 mm 1 mps 758 mmHg 96%
    04:00 +23°C° 0 mm 1 mps 758 mmHg 97%
    05:00 +23°C° 0 mm 1 mps 758 mmHg 98%
    06:00 +24°C° 0 mm 1 mps 759 mmHg 91%
    07:00 +26°C° 0 mm 2 mps 759 mmHg 83%
    08:00 +27°C° 0 mm 2 mps 759 mmHg 76%
    09:00 +30°C° 0 mm 2 mps 759 mmHg 66%
    10:00 +32°C° 0 mm 2 mps 759 mmHg 57%
    11:00 +35°C° 0 mm 2 mps 760 mmHg 47%
    12:00 +36°C° 0 mm 2 mps 759 mmHg 44%
    13:00 +37°C° 0 mm 3 mps 758 mmHg 41%
    14:00 +38°C° 0 mm 3 mps 757 mmHg 38%
    15:00 +37°C° 0 mm 3 mps 756 mmHg 40%
    16:00 +36°C° 0 mm 3 mps 756 mmHg 42%
    17:00 +35°C° 0 mm 3 mps 755 mmHg 44%
    18:00 +33°C° 0 mm 3 mps 756 mmHg 51%
    19:00 +30°C° 0 mm 3 mps 756 mmHg 59%
    20:00 +28°C° 0 mm 3 mps 757 mmHg 66%
    21:00 +27°C° 0 mm 2 mps 758 mmHg 73%
    22:00 +26°C° 0 mm 2 mps 758 mmHg 79%
    23:00 +25°C° 0 mm 1 mps 759 mmHg 86%

    Tomorrow, 22 March, Friday

    Time Temperature Precipitation Wind Pressure Humidity
    00:00 +24°C° 0 mm 1 mps 758 mmHg 89%
    01:00 +24°C° 0 mm 1 mps 758 mmHg 93%
    02:00 +23°C° 0 mm 1 mps 758 mmHg 97%
    03:00 +23°C° 0 mm 1 mps 758 mmHg 97%
    04:00 +23°C° 0 mm 1 mps 758 mmHg 98%
    05:00 +23°C° 0 mm 1 mps 758 mmHg 98%
    06:00 +24°C° 0 mm 1 mps 758 mmHg 91%
    07:00 +26°C° 0 mm 1 mps 759 mmHg 83%
    08:00 +27°C° 0 mm 2 mps 760 mmHg 76%
    09:00 +30°C° 0 mm 2 mps 760 mmHg 65%
    10:00 +32°C° 0 mm 2 mps 760 mmHg 54%
    11:00 +36°C° 0 mm 2 mps 760 mmHg 43%
    12:00 +37°C° 0 mm 2 mps 759 mmHg 39%
    13:00 +38°C° 0 mm 2 mps 758 mmHg 34%
    14:00 +40°C° 0 mm 2 mps 756 mmHg 29%
    15:00 +38°C° 0 mm 2 mps 756 mmHg 31%
    16:00 +37°C° 0 mm 3 mps 756 mmHg 33%
    17:00 +36°C° 0 mm 3 mps 755 mmHg 36%
    18:00 +34°C° 0 mm 3 mps 756 mmHg 42%
    19:00 +31°C° 0 mm 3 mps 757 mmHg 48%
    20:00 +28°C° 0 mm 3 mps 757 mmHg 54%
    21:00 +27°C° 0 mm 3 mps 758 mmHg 63%
    22:00 +26°C° 0 mm 2 mps 759 mmHg 73%
    23:00 +25°C° 0 mm 2 mps 759 mmHg 82%

    Day after tomorrow, 23 March, Saturday

    Time Temperature Precipitation Wind Pressure Humidity
    00:00 +25°C° 0 mm 2 mps 759 mmHg 86%
    01:00 +24°C° 0 mm 1 mps 759 mmHg 91%
    02:00 +23°C° 0 mm 1 mps 758 mmHg 95%
    03:00 +23°C° 0 mm 1 mps 758 mmHg 96%
    04:00 +23°C° 0 mm 1 mps 758 mmHg 97%
    05:00 +22°C° 0 mm 1 mps 758 mmHg 98%
    06:00 +24°C° 0 mm 1 mps 759 mmHg 90%
    07:00 +26°C° 0 mm 2 mps 759 mmHg 83%
    08:00 +27°C° 0 mm 2 mps 760 mmHg 75%
    09:00 +30°C° 0 mm 2 mps 760 mmHg 64%
    10:00 +32°C° 0 mm 2 mps 760 mmHg 53%
    11:00 +36°C° 0 mm 2 mps 760 mmHg 41%
    12:00 +37°C° 0 mm 2 mps 759 mmHg 38%
    13:00 +38°C° 0 mm 2 mps 758 mmHg 35%
    14:00 +39°C° 0 mm 2 mps 757 mmHg 32%
    15:00 +38°C° 0 mm 3 mps 756 mmHg 33%
    16:00 +37°C° 0 mm 3 mps 756 mmHg 35%
    17:00 +36°C° 0 mm 3 mps 756 mmHg 36%
    18:00 +34°C° 0 mm 3 mps 756 mmHg 43%
    19:00 +31°C° 0 mm 3 mps 757 mmHg 50%
    20:00 +29°C° 0 mm 3 mps 758 mmHg 57%
    21:00 +28°C° 0 mm 3 mps 758 mmHg 65%
    22:00 +27°C° 0 mm 2 mps 759 mmHg 73%
    23:00 +25°C° 0 mm 2 mps 759 mmHg 82%

    24 March, Sunday

    Time Temperature Precipitation Wind Pressure Humidity
    00:00 +25°C° 0 mm 1 mps 759 mmHg 85%
    01:00 +24°C° 0 mm 1 mps 758 mmHg 89%
    02:00 +24°C° 0 mm 1 mps 758 mmHg 93%
    03:00 +24°C° 0 mm 1 mps 758 mmHg 94%
    04:00 +23°C° 0 mm 1 mps 758 mmHg 96%
    05:00 +23°C° 0 mm 1 mps 759 mmHg 97%
    06:00 +25°C° 0 mm 1 mps 759 mmHg 89%
    07:00 +26°C° 0 mm 2 mps 760 mmHg 81%
    08:00 +28°C° 0 mm 2 mps 760 mmHg 73%
    09:00 +30°C° 0 mm 2 mps 760 mmHg 65%
    10:00 +32°C° 0 mm 2 mps 760 mmHg 57%
    11:00 +34°C° 0 mm 3 mps 760 mmHg 49%
    12:00 +35°C° 0 mm 3 mps 759 mmHg 48%
    13:00 +35°C° 0 mm 2 mps 758 mmHg 46%
    14:00 +36°C° 0 mm 2 mps 757 mmHg 44%
    15:00 +36°C° 0 mm 2 mps 757 mmHg 43%
    16:00 +36°C° 0 mm 3 mps 756 mmHg 41%
    17:00 +36°C° 0 mm 3 mps 756 mmHg 40%
    18:00 +34°C° 0 mm 3 mps 756 mmHg 47%
    19:00 +31°C° 0 mm 3 mps 757 mmHg 54%
    20:00 +29°C° 0 mm 3 mps 757 mmHg 60%
    21:00 +27°C° 0 mm 2 mps 758 mmHg 69%
    22:00 +26°C° 0 mm 2 mps 758 mmHg 78%
    23:00 +25°C° 0 mm 1 mps 758 mmHg 87%

    25 March, Monday

    Time Temperature Precipitation Wind Pressure Humidity
    00:00 +24°C° 0 mm 1 mps 758 mmHg 90%
    01:00 +24°C° 0 mm 1 mps 758 mmHg 94%
    02:00 +23°C° 0 mm 1 mps 758 mmHg 97%
    03:00 +23°C° 0 mm 1 mps 758 mmHg 98%
    04:00 +23°C° 0 mm 1 mps 758 mmHg 98%
    05:00 +23°C° 0 mm 1 mps 758 mmHg 98%
    06:00 +24°C° 0 mm 1 mps 759 mmHg 91%
    07:00 +26°C° 0 mm 2 mps 759 mmHg 84%
    08:00 +28°C° 0 mm 2 mps 760 mmHg 76%
    09:00 +30°C° 0.1 mm 2 mps 759 mmHg 66%
    10:00 +32°C° 0.1 mm 2 mps 759 mmHg 56%
    11:00 +35°C° 0.1 mm 3 mps 759 mmHg 46%
    12:00 +36°C° 0 mm 3 mps 758 mmHg 44%
    13:00 +36°C° 0 mm 3 mps 757 mmHg 42%
    14:00 +36°C° 0 mm 2 mps 756 mmHg 40%
    15:00 +36°C° 0 mm 3 mps 756 mmHg 41%
    16:00 +36°C° 0 mm 3 mps 755 mmHg 42%
    17:00 +35°C° 0 mm 3 mps 755 mmHg 43%
    18:00 +34°C° 0 mm 3 mps 756 mmHg 49%
    19:00 +31°C° 0 mm 3 mps 756 mmHg 55%
    20:00 +29°C° 0 mm 3 mps 757 mmHg 61%
    21:00 +28°C° 0 mm 3 mps 757 mmHg 68%
    22:00 +27°C° 0 mm 2 mps 758 mmHg 74%
    23:00 +25°C° 0 mm 2 mps 758 mmHg 81%

    26 March, Tuesday

    Time Temperature Precipitation Wind Pressure Humidity
    00:00 +25°C° 0 mm 2 mps 758 mmHg 85%
    01:00 +24°C° 0 mm 1 mps 758 mmHg 89%
    02:00 +23°C° 0 mm 1 mps 757 mmHg 93%
    03:00 +23°C° 0 mm 1 mps 757 mmHg 95%
    04:00 +23°C° 0 mm 1 mps 758 mmHg 96%
    05:00 +23°C° 0 mm 1 mps 758 mmHg 98%
    06:00 +24°C° 0 mm 1 mps 758 mmHg 90%
    07:00 +26°C° 0 mm 2 mps 759 mmHg 83%
    08:00 +28°C° 0 mm 2 mps 759 mmHg 75%
    09:00 +30°C° 0 mm 2 mps 759 mmHg 66%
    10:00 +32°C° 0 mm 2 mps 759 mmHg 58%
    11:00 +35°C° 0 mm 2 mps 759 mmHg 49%
    12:00 +36°C° 0 mm 2 mps 758 mmHg 45%
    13:00 +37°C° 0 mm 2 mps 757 mmHg 41%
    14:00 +38°C° 0 mm 2 mps 756 mmHg 37%
    15:00 +37°C° 0 mm 3 mps 756 mmHg 40%
    16:00 +36°C° 0 mm 3 mps 755 mmHg 43%
    17:00 +35°C° 0 mm 3 mps 755 mmHg 46%
    18:00 +33°C° 0 mm 3 mps 756 mmHg 53%
    19:00 +31°C° 0 mm 3 mps 756 mmHg 60%
    20:00 +29°C° 0 mm 3 mps 757 mmHg 67%
    21:00 +28°C° 0 mm 3 mps 757 mmHg 72%
    22:00 +27°C° 0 mm 2 mps 758 mmHg 77%
    23:00 +26°C° 0 mm 2 mps 758 mmHg 82%
    Show more